• En España
  • Lista de países
  • Para 7 días
  • Temperatura del agua
  • Mapa Satelital
  • El tiempo en el mapa
  • Informadores
  • user-avatar
    Iniciar sesión

    Tiempo cada hora Alan-Polyan

    Hoy, 20 Agosto, Lunes

    Tiempo Temperatura Precipitaciones Viento Presión Humedad
    00:00 +11°C° 0 mm 1 mps 751 mmHg 79%
    01:00 +11°C° 0 mm 1 mps 751 mmHg 80%
    02:00 +11°C° 0 mm 1 mps 751 mmHg 82%
    03:00 +11°C° 0 mm 1 mps 751 mmHg 83%
    04:00 +11°C° 0 mm 1 mps 751 mmHg 82%
    05:00 +12°C° 0 mm 1 mps 751 mmHg 81%
    06:00 +12°C° 0 mm 2 mps 751 mmHg 80%
    07:00 +14°C° 0 mm 2 mps 750 mmHg 76%
    08:00 +16°C° 0 mm 2 mps 750 mmHg 71%
    09:00 +18°C° 0 mm 3 mps 750 mmHg 67%
    10:00 +19°C° 0 mm 3 mps 750 mmHg 64%
    11:00 +20°C° 0 mm 3 mps 750 mmHg 62%
    12:00 +21°C° 0 mm 3 mps 749 mmHg 60%
    13:00 +21°C° 0 mm 3 mps 749 mmHg 60%
    14:00 +22°C° 0 mm 4 mps 749 mmHg 60%
    15:00 +22°C° 0 mm 4 mps 748 mmHg 60%
    16:00 +21°C° 0 mm 4 mps 748 mmHg 65%
    17:00 +20°C° 0 mm 3 mps 747 mmHg 69%
    18:00 +19°C° 0 mm 3 mps 747 mmHg 74%
    19:00 +19°C° 0,2 mm 3 mps 747 mmHg 78%
    20:00 +18°C° 0,2 mm 3 mps 747 mmHg 82%
    21:00 +17°C° 0,2 mm 3 mps 747 mmHg 86%
    22:00 +17°C° 0,2 mm 3 mps 747 mmHg 88%
    23:00 +17°C° 0,2 mm 3 mps 746 mmHg 91%

    Mañana, 21 Agosto, Martes

    Tiempo Temperatura Precipitaciones Viento Presión Humedad
    00:00 +16°C° 0,2 mm 3 mps 746 mmHg 93%
    01:00 +16°C° 0 mm 3 mps 746 mmHg 94%
    02:00 +16°C° 0 mm 3 mps 746 mmHg 94%
    03:00 +16°C° 0 mm 2 mps 746 mmHg 95%
    04:00 +17°C° 0 mm 2 mps 746 mmHg 94%
    05:00 +17°C° 0 mm 2 mps 746 mmHg 93%
    06:00 +17°C° 0 mm 2 mps 746 mmHg 93%
    07:00 +18°C° 0,1 mm 3 mps 746 mmHg 88%
    08:00 +19°C° 0,1 mm 3 mps 746 mmHg 84%
    09:00 +21°C° 0,1 mm 4 mps 746 mmHg 80%
    10:00 +22°C° 0,7 mm 4 mps 746 mmHg 77%
    11:00 +22°C° 0,7 mm 5 mps 745 mmHg 73%
    12:00 +23°C° 0,7 mm 5 mps 745 mmHg 70%
    13:00 +23°C° 0,5 mm 5 mps 745 mmHg 69%
    14:00 +25°C° 0,5 mm 5 mps 744 mmHg 67%
    15:00 +25°C° 0,5 mm 5 mps 744 mmHg 66%
    16:00 +23°C° 0,1 mm 5 mps 744 mmHg 69%
    17:00 +22°C° 0,1 mm 4 mps 743 mmHg 73%
    18:00 +22°C° 0,1 mm 4 mps 743 mmHg 76%
    19:00 +21°C° 0 mm 4 mps 743 mmHg 78%
    20:00 +20°C° 0 mm 4 mps 743 mmHg 80%
    21:00 +19°C° 0 mm 4 mps 742 mmHg 81%
    22:00 +19°C° 0 mm 5 mps 742 mmHg 80%
    23:00 +17°C° 0 mm 5 mps 742 mmHg 80%

    Pasado mañana, 22 Agosto, Miércoles

    Tiempo Temperatura Precipitaciones Viento Presión Humedad
    00:00 +17°C° 0 mm 5 mps 741 mmHg 79%
    01:00 +17°C° 0 mm 5 mps 741 mmHg 77%
    02:00 +17°C° 0 mm 5 mps 741 mmHg 76%
    03:00 +17°C° 0 mm 5 mps 741 mmHg 75%
    04:00 +16°C° 0,9 mm 5 mps 741 mmHg 79%
    05:00 +16°C° 0,9 mm 5 mps 741 mmHg 84%
    06:00 +16°C° 0,9 mm 5 mps 741 mmHg 88%
    07:00 +16°C° 0,6 mm 5 mps 741 mmHg 88%
    08:00 +15°C° 0,6 mm 5 mps 741 mmHg 88%
    09:00 +15°C° 0,6 mm 4 mps 742 mmHg 88%
    10:00 +17°C° 0 mm 4 mps 742 mmHg 81%
    11:00 +17°C° 0 mm 4 mps 742 mmHg 73%
    12:00 +18°C° 0 mm 4 mps 742 mmHg 66%
    13:00 +19°C° 0 mm 4 mps 742 mmHg 64%
    14:00 +19°C° 0 mm 4 mps 743 mmHg 61%
    15:00 +20°C° 0 mm 4 mps 743 mmHg 59%
    16:00 +18°C° 0,3 mm 4 mps 743 mmHg 66%
    17:00 +17°C° 0,3 mm 4 mps 743 mmHg 73%
    18:00 +15°C° 0,3 mm 4 mps 743 mmHg 80%
    19:00 +14°C° 0,2 mm 4 mps 744 mmHg 84%
    20:00 +13°C° 0,2 mm 4 mps 744 mmHg 88%
    21:00 +11°C° 0,2 mm 3 mps 744 mmHg 91%
    22:00 +11°C° 0 mm 3 mps 745 mmHg 92%
    23:00 +10°C° 0 mm 3 mps 745 mmHg 92%

    23 Agosto, Jueves

    Tiempo Temperatura Precipitaciones Viento Presión Humedad
    00:00 +10°C° 0 mm 3 mps 745 mmHg 92%
    01:00 +9°C° 0 mm 3 mps 746 mmHg 92%
    02:00 +8°C° 0 mm 4 mps 746 mmHg 91%
    03:00 +7°C° 0 mm 4 mps 746 mmHg 91%
    04:00 +8°C° 0 mm 4 mps 747 mmHg 90%
    05:00 +8°C° 0 mm 4 mps 747 mmHg 89%
    06:00 +8°C° 0 mm 4 mps 748 mmHg 87%
    07:00 +9°C° 0 mm 5 mps 748 mmHg 80%
    08:00 +11°C° 0 mm 6 mps 748 mmHg 73%
    09:00 +13°C° 0 mm 6 mps 748 mmHg 66%
    10:00 +14°C° 0 mm 6 mps 748 mmHg 62%
    11:00 +15°C° 0 mm 7 mps 748 mmHg 57%
    12:00 +16°C° 0 mm 7 mps 748 mmHg 52%
    13:00 +16°C° 0 mm 7 mps 748 mmHg 52%
    14:00 +17°C° 0 mm 7 mps 749 mmHg 51%
    15:00 +17°C° 0 mm 6 mps 749 mmHg 51%
    16:00 +16°C° 0 mm 5 mps 749 mmHg 57%
    17:00 +15°C° 0 mm 4 mps 749 mmHg 62%
    18:00 +14°C° 0 mm 3 mps 749 mmHg 67%
    19:00 +13°C° 0 mm 4 mps 749 mmHg 68%
    20:00 +12°C° 0 mm 4 mps 749 mmHg 70%
    21:00 +11°C° 0 mm 4 mps 750 mmHg 72%
    22:00 +11°C° 0 mm 4 mps 750 mmHg 72%
    23:00 +11°C° 0 mm 4 mps 750 mmHg 73%

    24 Agosto, Viernes

    Tiempo Temperatura Precipitaciones Viento Presión Humedad
    00:00 +11°C° 0 mm 4 mps 750 mmHg 74%
    01:00 +11°C° 0 mm 4 mps 750 mmHg 74%
    02:00 +10°C° 0 mm 4 mps 750 mmHg 75%
    03:00 +10°C° 0 mm 4 mps 750 mmHg 75%
    04:00 +11°C° 0 mm 4 mps 750 mmHg 75%
    05:00 +11°C° 0 mm 4 mps 750 mmHg 75%
    06:00 +10°C° 0 mm 5 mps 750 mmHg 75%
    07:00 +12°C° 0,1 mm 5 mps 750 mmHg 75%
    08:00 +13°C° 0,1 mm 5 mps 750 mmHg 76%
    09:00 +14°C° 0,1 mm 5 mps 749 mmHg 76%
    10:00 +15°C° 0 mm 5 mps 749 mmHg 74%
    11:00 +16°C° 0 mm 5 mps 750 mmHg 72%
    12:00 +17°C° 0 mm 5 mps 750 mmHg 70%
    13:00 +19°C° 0 mm 4 mps 750 mmHg 70%
    14:00 +19°C° 0 mm 4 mps 750 mmHg 70%
    15:00 +20°C° 0 mm 4 mps 750 mmHg 70%
    16:00 +19°C° 0 mm 3 mps 750 mmHg 74%
    17:00 +19°C° 0 mm 3 mps 750 mmHg 77%
    18:00 +18°C° 0 mm 2 mps 750 mmHg 81%
    19:00 +17°C° 0 mm 2 mps 750 mmHg 83%
    20:00 +17°C° 0 mm 2 mps 750 mmHg 86%
    21:00 +16°C° 0 mm 1 mps 750 mmHg 88%
    22:00 +15°C° 0 mm 2 mps 750 mmHg 89%
    23:00 +15°C° 0 mm 2 mps 750 mmHg 91%

    25 Agosto, Sábado

    Tiempo Temperatura Precipitaciones Viento Presión Humedad
    00:00 +15°C° 0 mm 2 mps 750 mmHg 92%
    01:00 +14°C° 0 mm 2 mps 750 mmHg 92%
    02:00 +14°C° 0 mm 2 mps 751 mmHg 93%
    03:00 +13°C° 0 mm 2 mps 751 mmHg 94%
    04:00 +13°C° 0 mm 2 mps 751 mmHg 93%
    05:00 +14°C° 0 mm 2 mps 751 mmHg 93%
    06:00 +14°C° 0 mm 2 mps 751 mmHg 93%
    07:00 +15°C° 0 mm 2 mps 751 mmHg 87%
    08:00 +17°C° 0 mm 2 mps 751 mmHg 80%
    09:00 +19°C° 0 mm 2 mps 751 mmHg 74%
    10:00 +20°C° 0 mm 3 mps 751 mmHg 70%
    11:00 +21°C° 0 mm 3 mps 751 mmHg 65%
    12:00 +22°C° 0 mm 3 mps 751 mmHg 61%
    13:00 +22°C° 0 mm 3 mps 751 mmHg 62%
    14:00 +22°C° 0 mm 3 mps 751 mmHg 62%
    15:00 +22°C° 0 mm 3 mps 751 mmHg 62%
    16:00 +21°C° 0 mm 3 mps 750 mmHg 68%
    17:00 +20°C° 0 mm 2 mps 750 mmHg 73%
    18:00 +19°C° 0 mm 2 mps 750 mmHg 78%
    19:00 +18°C° 0 mm 2 mps 750 mmHg 82%
    20:00 +18°C° 0 mm 1 mps 750 mmHg 85%
    21:00 +16°C° 0 mm 1 mps 750 mmHg 89%
    22:00 +16°C° 0 mm 1 mps 750 mmHg 90%
    23:00 +15°C° 0 mm 1 mps 750 mmHg 91%
    Mostrar más